MPEC 2002-G24 : 2002 GJ1

The following Minor Planet Electronic Circular may be linked-to from your own Web pages, but must not otherwise be redistributed electronically.


Read MPEC 2002-G23 Read MPEC 2002-G25


M.P.E.C. 2002-G24                                Issued 2002 Apr. 5, 18:43 UT

     The Minor Planet Electronic Circulars contain information on unusual
         minor planets and routine data on comets.  They are published
   on behalf of Commission 20 of the International Astronomical Union by the
          Minor Planet Center, Smithsonian Astrophysical Observatory,
                          Cambridge, MA 02138, U.S.A.

             Prepared using the Tamkin Foundation Computer Network

                              MPC@CFA.HARVARD.EDU
          URL http://cfa-www.harvard.edu/iau/mpc.html  ISSN 1523-6714

                                   2002 GJ1

Observations:
     K02G01J* C2002 04 04.32861 10 45 56.84 +19 19 18.7          19.9        608
     K02G01J  C2002 04 04.33962 10 46 00.29 +19 21 17.1          19.4        608
     K02G01J  C2002 04 04.35011 10 46 03.57 +19 23 09.3          19.3        608
     K02G01J  C2002 04 04.82091 10 49 12.76 +20 48 04.7                      246
     K02G01J  C2002 04 04.82138 10 49 12.93 +20 48 09.0          18.1 R      246
     K02G01J  C2002 04 04.82172 10 49 13.18 +20 48 13.9                      246
     K02G01J  C2002 04 04.82219 10 49 13.31 +20 48 19.1                      246
     K02G01J  C2002 04 04.82264 10 49 13.43 +20 48 23.6                      246
     K02G01J  C2002 04 04.84545 10 49 21.77 +20 52 42.1                      557
     K02G01J  C2002 04 04.84603 10 49 21.95 +20 52 49.4                      557
     K02G01J  C2002 04 04.84661 10 49 22.17 +20 52 55.5                      557
     K02G01J  C2002 04 04.84719 10 49 22.41 +20 53 02.5          18.5 V      557
     K02G01J  C2002 04 05.31155 10 52 36.42 +22 24 00.3          18.2 R      649
     K02G01J  C2002 04 05.31355 10 52 37.24 +22 24 23.7          18.4 R      649
     K02G01J  C2002 04 05.31557 10 52 38.10 +22 24 47.6          18.1 R      649

Observer details:
246 Klet Observatory-KLENOT.  Observers J. Ticha, M. Tichy.  1.06-m
    KLENOT telescope + CCD.
557 Ondrejov.  Observers L. Sarounova, M. Wolf.  0.65-m f/3.6 reflector + CCD.
608 Haleakala-NEAT/MSSS.  Observers E. F. Helin, S. Pravdo, K. Lawrence,
    P. Kervin, R. Maeda, J. Africano, M. Hicks.  1.2-m reflector + CCD.
649 Powell Observatory, Louisburg.  Observers K. Smalley, R. Fredrick,
    R. Trentman.  0.75-m Newtonian + CCD.

Orbital elements:
2002 GJ1
Epoch 2002 Mar. 27.0 TT = JDT 2452360.5                 MPC
M 348.00286              (2000.0)            P               Q
n   0.34957447     Peri.   35.26130     -0.72988684     +0.68336355
a   1.9957658      Node   187.91108     -0.65174461     -0.70307391
e   0.5018078      Incl.    6.97624     -0.20614112     -0.19672654
P   2.82           H   23.3           G   0.15
From 15 observations 2002 Apr. 4-5.

Ephemeris:
2002 GJ1                 a,e,i = 2.00, 0.50, 7                   q = 0.9943
Date    TT    R. A. (2000) Decl.     Delta      r     Elong.  Phase     V
2002 03 27    10 17.88   +03 57.2    0.092    1.077   148.2    29.2    19.6
2002 03 28    10 19.64   +05 07.7    0.087    1.072   147.4    30.1    19.5
2002 03 29    10 21.69   +06 25.8    0.082    1.068   146.6    31.0    19.3
2002 03 30    10 24.08   +07 53.0    0.078    1.064   145.8    31.9    19.2
2002 03 31    10 26.87   +09 30.4    0.073    1.060   144.9    32.8    19.1
2002 04 01    10 30.13   +11 19.9    0.069    1.056   143.9    33.9    19.0
2002 04 02    10 33.97   +13 23.4    0.065    1.052   142.9    35.0    18.9
2002 04 03    10 38.51   +15 43.3    0.060    1.048   141.8    36.2    18.8
2002 04 04    10 43.92   +18 22.3    0.056    1.044   140.5    37.6    18.7
2002 04 05    10 50.42   +21 23.5    0.053    1.041   139.0    39.1    18.5
2002 04 06    10 58.34   +24 49.9    0.049    1.037   137.2    40.9    18.4
2002 04 07    11 08.10   +28 44.5    0.046    1.034   135.1    43.1    18.3
2002 04 08    11 20.32   +33 09.3    0.043    1.031   132.6    45.7    18.3
2002 04 09    11 35.92   +38 03.6    0.040    1.027   129.5    48.8    18.2
2002 04 10    11 56.20   +43 22.7    0.038    1.025   125.9    52.4    18.2
2002 04 11    12 23.04   +48 54.1    0.036    1.022   121.7    56.6    18.2
2002 04 12    12 58.91   +54 15.3    0.035    1.019   117.0    61.2    18.3
2002 04 13    13 46.29   +58 52.3    0.035    1.016   112.1    66.1    18.4
2002 04 14    14 45.44   +62 04.9    0.036    1.014   107.1    71.0    18.6
2002 04 15    15 51.14   +63 23.4    0.037    1.012   102.3    75.7    18.8
2002 04 16    16 53.61   +62 49.3    0.038    1.009    97.9    79.9    19.0
2002 04 17    17 45.48   +60 54.3    0.040    1.007    94.1    83.6    19.3
2002 04 18    18 25.37   +58 16.7    0.043    1.006    90.8    86.7    19.5
2002 04 19    18 55.33   +55 25.0    0.046    1.004    88.1    89.3    19.8
2002 04 20    19 17.96   +52 35.4    0.049    1.002    85.9    91.3    20.0
2002 04 21    19 35.36   +49 55.8    0.053    1.001    84.1    92.9    20.2
2002 04 22    19 49.04   +47 29.2    0.056    0.999    82.6    94.1    20.4
2002 04 23    20 00.02   +45 16.3    0.060    0.998    81.5    95.0    20.6
2002 04 24    20 09.00   +43 16.5    0.064    0.997    80.7    95.7    20.8
2002 04 25    20 16.49   +41 28.7    0.068    0.996    80.1    96.1    20.9
2002 04 26    20 22.84   +39 51.6    0.072    0.996    79.6    96.3    21.0
2002 04 27    20 28.28   +38 24.0    0.077    0.995    79.3    96.3    21.2
2002 04 28    20 33.02   +37 04.9    0.081    0.995    79.2    96.3    21.3
2002 04 29    20 37.18   +35 53.2    0.085    0.994    79.1    96.1    21.4
2002 04 30    20 40.88   +34 48.0    0.089    0.994    79.2    95.8    21.5
2002 05 01    20 44.19   +33 48.6    0.094    0.994    79.3    95.4    21.6
2002 05 02    20 47.17   +32 54.2    0.098    0.994    79.5    95.0    21.6
2002 05 03    20 49.88   +32 04.3    0.102    0.995    79.7    94.5    21.7
2002 05 04    20 52.36   +31 18.4    0.107    0.995    80.0    93.9    21.8
2002 05 05    20 54.63   +30 36.1    0.111    0.996    80.4    93.3    21.8
2002 05 06    20 56.73   +29 56.9    0.115    0.997    80.7    92.7    21.9
2002 05 07    20 58.68   +29 20.5    0.120    0.998    81.2    92.0    21.9
2002 05 08    21 00.48   +28 46.6    0.124    0.999    81.6    91.4    22.0
2002 05 09    21 02.17   +28 15.0    0.128    1.000    82.1    90.6    22.0
2002 05 10    21 03.74   +27 45.4    0.132    1.001    82.6    89.9    22.1
2002 05 11    21 05.22   +27 17.6    0.137    1.003    83.1    89.1    22.1
2002 05 12    21 06.60   +26 51.5    0.141    1.004    83.7    88.3    22.2
2002 05 13    21 07.90   +26 26.9    0.145    1.006    84.2    87.5    22.2
2002 05 14    21 09.13   +26 03.6    0.149    1.008    84.8    86.7    22.2
2002 05 15    21 10.28   +25 41.5    0.153    1.010    85.4    85.9    22.3
2002 05 16    21 11.36   +25 20.5    0.157    1.012    86.1    85.0    22.3
2002 05 26    21 19.13   +22 32.5    0.196    1.042    93.1    76.1    22.5

Timothy B. Spahr             (C) Copyright 2002 MPC           M.P.E.C. 2002-G24

Read MPEC 2002-G23 Read MPEC 2002-G25


Our Web policy. Index to the CBAT/MPC/ICQ pages.

MPC